When you browse on this site, cookies collect data to enhance your experience and personalize the content and advertising you see.
Visit our Privacy Policy to learn more. By continuing to use the site, you agree to this use of cookies and data.
  • en France
  • Liste des pays
  • À 7 jours
  • Température de l'eau
  • Carte satellitaire
  • Carte météo
  • Widgets météo
  • user-avatar
    Se connecter

    Météo par heure à Dyatlovo

    Ce jour, 19 Février, Mardi

    Heure Température Précipitation Vent Pression Humidité
    00:00 -9°C° 0 mm 1 m/s 748 mmHg 92%
    01:00 -10°C° 0 mm 2 m/s 748 mmHg 91%
    02:00 -10°C° 0 mm 2 m/s 748 mmHg 91%
    03:00 -12°C° 0 mm 3 m/s 747 mmHg 89%
    04:00 -10°C° 0 mm 3 m/s 746 mmHg 87%
    05:00 -11°C° 0 mm 4 m/s 746 mmHg 85%
    06:00 -11°C° 0 mm 5 m/s 745 mmHg 83%
    07:00 -10°C° 0 mm 5 m/s 745 mmHg 81%
    08:00 -10°C° 0 mm 5 m/s 744 mmHg 79%
    09:00 -8°C° 0 mm 6 m/s 744 mmHg 75%
    10:00 -6°C° 0 mm 6 m/s 743 mmHg 72%
    11:00 -5°C° 0 mm 6 m/s 743 mmHg 69%
    12:00 -4°C° 0 mm 6 m/s 742 mmHg 69%
    13:00 -4°C° 0 mm 6 m/s 742 mmHg 70%
    14:00 -2°C° 0 mm 5 m/s 741 mmHg 71%
    15:00 -4°C° 0 mm 5 m/s 741 mmHg 73%
    16:00 -4°C° 0 mm 5 m/s 740 mmHg 75%
    17:00 -4°C° 0 mm 4 m/s 740 mmHg 77%
    18:00 -4°C° 0 mm 4 m/s 739 mmHg 78%
    19:00 -5°C° 0 mm 5 m/s 739 mmHg 80%
    20:00 -5°C° 0 mm 5 m/s 738 mmHg 81%
    21:00 -5°C° 0 mm 5 m/s 738 mmHg 83%
    22:00 -5°C° 0 mm 5 m/s 737 mmHg 86%
    23:00 -5°C° 0 mm 5 m/s 736 mmHg 88%

    Demain, 20 Février, Mercredi

    Heure Température Précipitation Vent Pression Humidité
    00:00 -5°C° 0 mm 5 m/s 736 mmHg 88%
    01:00 -4°C° 0 mm 5 m/s 735 mmHg 88%
    02:00 -3°C° 0 mm 6 m/s 735 mmHg 88%
    03:00 -3°C° 0 mm 6 m/s 734 mmHg 88%
    04:00 -3°C° 0 mm 6 m/s 733 mmHg 88%
    05:00 -2°C° 0 mm 5 m/s 732 mmHg 88%
    06:00 -1°C° 0.1 mm 5 m/s 732 mmHg 89%
    07:00 -1°C° 0.1 mm 5 m/s 732 mmHg 90%
    08:00 -1°C° 0.1 mm 5 m/s 732 mmHg 91%
    09:00 0°C° 0 mm 5 m/s 732 mmHg 91%
    10:00 0°C° 0 mm 5 m/s 732 mmHg 91%
    11:00 0°C° 0 mm 5 m/s 732 mmHg 91%
    12:00 0°C° 0 mm 5 m/s 732 mmHg 91%
    13:00 0°C° 0 mm 5 m/s 732 mmHg 91%
    14:00 0°C° 0 mm 5 m/s 732 mmHg 91%
    15:00 0°C° 0.1 mm 4 m/s 732 mmHg 91%
    16:00 0°C° 0.1 mm 4 m/s 731 mmHg 91%
    17:00 -1°C° 0.1 mm 4 m/s 731 mmHg 92%
    18:00 -1°C° 0 mm 4 m/s 731 mmHg 91%
    19:00 -1°C° 0 mm 4 m/s 731 mmHg 91%
    20:00 -1°C° 0 mm 4 m/s 731 mmHg 90%
    21:00 -1°C° 0.1 mm 4 m/s 730 mmHg 90%
    22:00 -1°C° 0.1 mm 4 m/s 730 mmHg 90%
    23:00 -1°C° 0.1 mm 4 m/s 729 mmHg 91%

    Après-demain, 21 Février, Jeudi

    Heure Température Précipitation Vent Pression Humidité
    00:00 -1°C° 0.6 mm 4 m/s 729 mmHg 91%
    01:00 -1°C° 0.6 mm 4 m/s 729 mmHg 92%
    02:00 -2°C° 0.6 mm 4 m/s 729 mmHg 92%
    03:00 -2°C° 0.4 mm 4 m/s 729 mmHg 92%
    04:00 -3°C° 0.4 mm 4 m/s 729 mmHg 91%
    05:00 -4°C° 0.4 mm 4 m/s 729 mmHg 91%
    06:00 -4°C° 0.1 mm 3 m/s 729 mmHg 91%
    07:00 -4°C° 0.1 mm 3 m/s 730 mmHg 90%
    08:00 -4°C° 0.1 mm 3 m/s 730 mmHg 90%
    09:00 -4°C° 0.1 mm 4 m/s 730 mmHg 90%
    10:00 -4°C° 0.1 mm 5 m/s 730 mmHg 89%
    11:00 -4°C° 0.1 mm 5 m/s 731 mmHg 88%
    12:00 -4°C° 0.1 mm 5 m/s 731 mmHg 87%
    13:00 -5°C° 0.1 mm 5 m/s 732 mmHg 87%
    14:00 -5°C° 0.1 mm 5 m/s 732 mmHg 87%
    15:00 -6°C° 0.2 mm 6 m/s 733 mmHg 87%
    16:00 -6°C° 0.2 mm 6 m/s 733 mmHg 87%
    17:00 -7°C° 0.2 mm 7 m/s 734 mmHg 87%
    18:00 -8°C° 0.2 mm 7 m/s 735 mmHg 86%
    19:00 -9°C° 0.2 mm 7 m/s 736 mmHg 85%
    20:00 -11°C° 0.2 mm 7 m/s 737 mmHg 84%
    21:00 -12°C° 0.1 mm 7 m/s 738 mmHg 83%
    22:00 -12°C° 0.1 mm 7 m/s 739 mmHg 82%
    23:00 -13°C° 0.1 mm 7 m/s 740 mmHg 81%

    22 Février, Vendredi

    Heure Température Précipitation Vent Pression Humidité
    00:00 -13°C° 0.1 mm 7 m/s 740 mmHg 80%
    01:00 -14°C° 0.1 mm 7 m/s 741 mmHg 79%
    02:00 -15°C° 0.1 mm 7 m/s 742 mmHg 78%
    03:00 -17°C° 0 mm 7 m/s 743 mmHg 77%
    04:00 -17°C° 0 mm 7 m/s 743 mmHg 76%
    05:00 -18°C° 0 mm 7 m/s 744 mmHg 75%
    06:00 -17°C° 0 mm 7 m/s 744 mmHg 75%
    07:00 -17°C° 0 mm 7 m/s 745 mmHg 76%
    08:00 -17°C° 0 mm 7 m/s 746 mmHg 76%
    09:00 -15°C° 0 mm 7 m/s 746 mmHg 74%
    10:00 -15°C° 0 mm 7 m/s 746 mmHg 73%
    11:00 -14°C° 0 mm 7 m/s 747 mmHg 71%
    12:00 -13°C° 0 mm 7 m/s 747 mmHg 70%
    13:00 -13°C° 0 mm 8 m/s 747 mmHg 69%
    14:00 -12°C° 0 mm 8 m/s 747 mmHg 68%
    15:00 -13°C° 0 mm 7 m/s 747 mmHg 70%
    16:00 -13°C° 0 mm 7 m/s 748 mmHg 71%
    17:00 -14°C° 0 mm 6 m/s 748 mmHg 73%
    18:00 -14°C° 0 mm 6 m/s 749 mmHg 74%
    19:00 -15°C° 0 mm 6 m/s 749 mmHg 76%
    20:00 -15°C° 0 mm 6 m/s 750 mmHg 77%
    21:00 -16°C° 0 mm 6 m/s 750 mmHg 78%
    22:00 -16°C° 0 mm 6 m/s 751 mmHg 79%
    23:00 -15°C° 0 mm 5 m/s 751 mmHg 79%

    23 Février, Samedi

    Heure Température Précipitation Vent Pression Humidité
    00:00 -15°C° 0 mm 5 m/s 752 mmHg 80%
    01:00 -15°C° 0 mm 5 m/s 752 mmHg 81%
    02:00 -15°C° 0 mm 5 m/s 753 mmHg 82%
    03:00 -15°C° 0 mm 5 m/s 753 mmHg 83%
    04:00 -17°C° 0 mm 5 m/s 753 mmHg 84%
    05:00 -17°C° 0 mm 5 m/s 753 mmHg 85%
    06:00 -16°C° 0 mm 4 m/s 753 mmHg 86%
    07:00 -16°C° 0 mm 4 m/s 753 mmHg 86%
    08:00 -16°C° 0 mm 4 m/s 754 mmHg 87%
    09:00 -16°C° 0 mm 4 m/s 754 mmHg 85%
    10:00 -15°C° 0 mm 4 m/s 754 mmHg 82%
    11:00 -15°C° 0 mm 4 m/s 754 mmHg 80%
    12:00 -14°C° 0 mm 4 m/s 754 mmHg 78%
    13:00 -12°C° 0 mm 3 m/s 754 mmHg 76%
    14:00 -12°C° 0 mm 3 m/s 754 mmHg 74%
    15:00 -13°C° 0 mm 3 m/s 754 mmHg 78%
    16:00 -12°C° 0 mm 2 m/s 754 mmHg 82%
    17:00 -13°C° 0 mm 2 m/s 755 mmHg 86%
    18:00 -14°C° 0 mm 2 m/s 755 mmHg 88%
    19:00 -14°C° 0 mm 2 m/s 755 mmHg 90%
    20:00 -14°C° 0 mm 2 m/s 756 mmHg 92%
    21:00 -13°C° 0 mm 1 m/s 756 mmHg 93%
    22:00 -13°C° 0 mm 1 m/s 757 mmHg 94%
    23:00 -13°C° 0 mm 1 m/s 757 mmHg 95%

    24 Février, Dimanche

    Heure Température Précipitation Vent Pression Humidité
    00:00 -13°C° 0 mm 1 m/s 757 mmHg 95%
    01:00 -13°C° 0 mm 1 m/s 758 mmHg 95%
    02:00 -14°C° 0 mm 1 m/s 758 mmHg 94%
    03:00 -14°C° 0 mm 1 m/s 758 mmHg 94%
    04:00 -14°C° 0 mm 1 m/s 758 mmHg 94%
    05:00 -14°C° 0 mm 0 m/s 758 mmHg 93%
    06:00 -13°C° 0 mm 0 m/s 758 mmHg 92%
    07:00 -13°C° 0 mm 0 m/s 759 mmHg 91%
    08:00 -12°C° 0 mm 1 m/s 759 mmHg 90%
    09:00 -11°C° 0 mm 1 m/s 759 mmHg 86%
    10:00 -9°C° 0 mm 1 m/s 759 mmHg 81%
    11:00 -7°C° 0 mm 1 m/s 759 mmHg 76%
    12:00 -7°C° 0 mm 1 m/s 758 mmHg 76%
    13:00 -7°C° 0 mm 2 m/s 758 mmHg 75%
    14:00 -6°C° 0 mm 2 m/s 757 mmHg 75%
    15:00 -7°C° 0 mm 2 m/s 757 mmHg 78%
    16:00 -8°C° 0 mm 2 m/s 756 mmHg 82%
    17:00 -9°C° 0 mm 2 m/s 756 mmHg 85%
    18:00 -10°C° 0 mm 3 m/s 755 mmHg 85%
    19:00 -12°C° 0 mm 3 m/s 754 mmHg 84%
    20:00 -12°C° 0 mm 3 m/s 754 mmHg 83%
    21:00 -11°C° 0 mm 4 m/s 753 mmHg 81%
    22:00 -11°C° 0 mm 4 m/s 752 mmHg 78%
    23:00 -12°C° 0 mm 5 m/s 751 mmHg 76%
    Voir plus